Regional Weather Roundup
Issued by NWS

Home | Current Version | Previous Version | Graphics & Text | Print | Product List | Glossary On
Versions: 1 2 3 4 5 6 7 8 9 10 11 12 13 14 15 16 17 18 19 20 21 22 23 24 25 26 27 28 29 30 31 32 33 34 35 36 37 38 39 40 41 42 43 44 45 46 47 48 49 50
000
ASUS45 KBOI 042210
RWRID

IDAHO REGIONAL WEATHER ROUNDUP
NATIONAL WEATHER SERVICE BOISE ID
300 PM MST THU FEB 04 2016

NOTE: "FAIR" INDICATES FEW OR NO CLOUDS BELOW 12000 FEET
WITH NO SIGNIFICANT WEATHER AND/OR OBSTRUCTIONS TO VISIBILITY

IDZ012-014-042300-
SOUTHWEST IDAHO


CITY           SKY/WX    TMP DP  RH WIND       PRES   REMARKS
BOISE          CLOUDY    38  30  73 SE6       30.39F WCI  33
CALDWELL       LGT RAIN  39  31  72 E6        30.40F WCI  35
MOUNTAIN HOME  PTSUNNY   35  35 100 E6        30.39F WCI  30
$$

IDZ016-017-042300-
SOUTHCENTRAL IDAHO


CITY           SKY/WX    TMP DP  RH WIND       PRES   REMARKS
BURLEY         CLOUDY    34  27  75 SW10      30.34F WCI  26
JEROME         CLOUDY    31  24  75 CALM      30.37S
TWIN FALLS     CLOUDY    35  28  75 NW8       30.36S WCI  29
$$

IDZ019>023-042300-
SOUTHEAST IDAHO


CITY           SKY/WX    TMP DP  RH WIND       PRES   REMARKS
IDAHO FALLS    CLOUDY    17  14  88 N5        30.34F FOG     WCI  10
POCATELLO        N/A     28  23  81 MISG      30.34F
REXBURG        LGT SNOW  18  15  88 N3        30.33S FOG
$$

IDZ006-010-011-018-031-032-042300-
CENTRAL IDAHO MOUNTAINS


CITY           SKY/WX    TMP DP  RH WIND       PRES   REMARKS
MCCALL         LGT SNOW  28  24  85 CALM      30.28F FOG
HAILEY         CLOUDY    25  19  80 SE7       30.31S WCI  17
STANLEY          N/A     29  15  56 N9        30.24S WCI  20
SALMON         PTSUNNY   21  14  73 CALM      30.30S
CHALLIS        CLOUDY    23  15  71 CALM      30.25F
$$

IDZ002-004-006-007-026-042300-
NORTHERN IDAHO


CITY           SKY/WX    TMP DP  RH WIND       PRES   REMARKS
LEWISTON       MOSUNNY   52  31  44 W16       30.30S
LOWELL           N/A     34  32  92 CALM      30.36S
COEUR D`ALENE  CLOUDY    36  30  80 W6        30.27R WCI  31
MULLAN PASS    SNOW      26  22  84 VRB6      30.14R VSB 1/2 WCI  19
$$



USA.gov is the U.S. government's official web portal to all federal, state and local government web resources and services.